{"data":{"norad_id":56343,"intl_designator":"2023-058AC","name":"STARLINK-5976","alt_names":[],"object_type":"PAYLOAD","status":"ACTIVE","operator":null,"country":"US","launch_date":"2023-04-27","launch_site_code":"AFWTR","launch_vehicle":null,"mission":null,"orbit_class":"UNKNOWN","rcs_meters":null,"size_class":null,"mass_kg":null,"dimensions":null,"purposes":["comms"],"wikipedia_slug":null,"has_3d_model":false,"image_url":null,"decayed_at":null,"tle_current":{"epoch":"2026-05-24T23:27:36.045792Z","epoch_age_seconds":83949,"freshness":"FRESH","line1":"1 56343U 23058AC  26144.97750053 -.00003421  00000+0 -23315-3 0  9990","line2":"2 56343  97.4480 146.0171 0001604 103.5835 256.5571 15.05653686169676","mean_motion":15.05653686,"eccentricity":0.0001604,"inclination_deg":97.448,"raan_deg":146.0171,"arg_perigee_deg":103.5835,"mean_anomaly_deg":256.5571,"bstar":-0.00023315,"rev_number":16967,"period_min":95.639522779344,"perigee_km":548.38865467225,"apogee_km":550.61104057297,"semimajor_km":6927.6368476226,"source":"CELESTRAK","updated_at":"2026-05-25T13:38:18.005360Z"}}}